Weather in Kochetovo

Russia / Tyva Republic     51°20′41″N   94°03′46″E
temp.,
°C
wind,
m/s
gust,
m/s
humid.,
%
clouds,
%
prec.,
mm/h
press.,
hPa
HPBL,
m
17 september, fri
fri1701:00+8ssw2261100 0.0 101315
04:00+8s1155100 0.0 101210
07:00+9sw115694 0.0 101310
10:00+14ne114229 0.0 1012420
13:00+18nne223351 0.0 1010987
16:00+19n22315 0.0 10091038
19:00+13sse22467 0.0 100915
22:00+10ssw32555 0.0 101018
18 september, sat
sat1801:00+10ssw225596 0.0 101016
04:00+9ssw21548 0.0 100912
07:00+8ssw11518 0.0 100912
10:00+15nne213613 0.0 1008420
13:00+19nne313199 0.0 1007755
16:00+19n2132100 0.0 1006635
19:00+13s21472 0.0 100811
22:00+11ssw32505 0.0 101022
19 september, sun
sun1901:00+10ssw224748 0.0 101117
04:00+9ssw21485 0.0 101112
07:00+9s11503 0.0 101111
10:00+16ne22365 0.0 1009431
13:00+21nne242356 0.0 10061547
16:00+23ssw3420100 0.0 10042194
19:00+15ssw3338100 0.0 100427
22:00+12ssw334116 0.0 100338
20 september, mon
mon2001:00+12sw32435 0.0 100324
04:00+10ssw2245100 0.0 100213
07:00+10s224821 0.0 100126
10:00+19wnw0729100 0.0 9971191
13:00+6nnw5978100 0.3 1011680
16:00+10nw455247 0.3 10101170
19:00+9n116093 0.0 100611
22:00+9nne2265100 0.2 100724
21 september, tue
tue2101:00+7ene2392100 1.4 1010182
04:00+6ne129480 0.4 1012221
07:00+6nne129395 0.8 1013156
10:00+7ne227429 0.2 1013680
13:00+8n2262100 0.8 10121059
16:00+6n2377100 1.1 1013772
19:00+4nw487798 3.4 1017653
22:00+2w2368100 0.3 1021222